University Park, PA

4:47 PM EST on February 06, 2016 (GMT -0500)
University Park

Weather History for KUNV - May, 2014

Change the Weather History Date:

Wednesday, May 7, 2014

  Actual Average (KAOO) Record (KAOO)
Temperature  
Mean Temperature 52 °F 56 °F  
Max Temperature 59 °F 67 °F 84 °F (2000)
Min Temperature 46 °F 44 °F 27 °F (1989)
Degree Days  
Heating Degree Days 12 10  
Month to date heating degree days 74  
Since 1 July heating degree days 5978  
Cooling Degree Days 0 0  
Month to date cooling degree days 0  
Year to date cooling degree days 6  
Growing Degree Days 2 (Base 50)    
Moisture  
Dew Point 32 °F    
Average Humidity 46    
Maximum Humidity 66    
Minimum Humidity 33    
Precipitation  
Precipitation 0.00 in - - ()
Sea Level Pressure  
Sea Level Pressure 30.17 in    
Wind  
Wind Speed 5 mph (ENE)    
Max Wind Speed 10 mph    
Max Gust Speed -    
Visibility 10 miles    
Events Rain    
T = Trace of Precipitation, MM = Missing Value Source: NWS Daily Summary

Daily Weather History Graph

Daily Weather History Graph

Search for Another Location

Airport or City:

Trip Planner

Search our weather history database for the weather conditions in past years. The results will help you decide how hot, cold, wet, or windy it might be!

Date:

Astronomy

May. 07, 2014 Rise Set
Actual Time 6:02 AM EDT 8:14 PM EDT
Civil Twilight 5:32 AM EDT 8:44 PM EDT
Nautical Twilight 4:54 AM EDT 9:21 PM EDT
Astronomical Twilight 4:13 AM EDT 10:03 PM EDT
Moon 1:14 PM EDT (5/7) 2:03 AM EDT (5/7)
Length of Visible Light 15h 12m
Length of Day
14h 11m
First Quarter, 55% of the Moon is Illuminated
May 7
First Quarter
May 14
Full
May 21
Last Quarter
May 28
New
Jun 5
First Quarter

Hourly Weather History & Observations

Time (EDT) Temp. Windchill Dew Point Humidity Pressure Visibility Wind Dir Wind Speed Gust Speed Precip Events Conditions
12:15 AM 52.2 °F - 27.0 °F 38% 30.10 in 10.0 mi ENE 4.6 mph - N/A   Clear
12:35 AM 51.8 °F - 26.4 °F 37% 30.11 in 10.0 mi NE 9.2 mph - N/A   Clear
12:55 AM 51.8 °F - 25.7 °F 36% 30.12 in 10.0 mi NNE 10.4 mph - N/A   Clear
1:15 AM 51.1 °F - 26.4 °F 38% 30.12 in 10.0 mi NE 9.2 mph - N/A   Clear
1:35 AM 50.0 °F - 26.6 °F 40% 30.12 in 10.0 mi NE 9.2 mph - N/A   Clear
1:55 AM 48.6 °F - 27.7 °F 44% 30.12 in 10.0 mi NE 5.8 mph - N/A   Clear
2:15 AM 48.0 °F - 28.0 °F 46% 30.13 in 10.0 mi Calm Calm - N/A   Clear
2:35 AM 48.4 °F - 27.0 °F 43% 30.13 in 10.0 mi Calm Calm - N/A   Clear
2:55 AM 48.9 °F - 26.2 °F 41% 30.13 in 10.0 mi NE 4.6 mph - N/A   Clear
3:15 AM 47.5 °F - 28.4 °F 48% 30.14 in 10.0 mi NE 4.6 mph - N/A   Clear
3:35 AM 48.7 °F - 27.3 °F 43% 30.15 in 10.0 mi North 3.5 mph - N/A   Clear
3:55 AM 48.0 °F - 26.8 °F 44% 30.14 in 10.0 mi NE 4.6 mph - N/A   Clear
4:15 AM 48.2 °F - 26.8 °F 43% 30.14 in 10.0 mi NE 5.8 mph - N/A   Clear
4:35 AM 48.2 °F - 27.0 °F 44% 30.13 in 10.0 mi ENE 3.5 mph - N/A   Clear
4:55 AM 48.6 °F - 26.4 °F 42% 30.13 in 10.0 mi NNE 4.6 mph - N/A   Clear
5:15 AM 48.4 °F - 26.2 °F 42% 30.14 in 10.0 mi NE 4.6 mph - N/A   Clear
5:35 AM 47.5 °F - 26.4 °F 44% 30.14 in 10.0 mi NE 3.5 mph - N/A   Clear
5:53 AM 46.4 °F 43.5 °F 28.4 °F 50% 30.15 in 10.0 mi ENE 5.8 mph - N/A   Clear
6:53 AM 46.4 °F 45.2 °F 28.4 °F 50% 30.17 in 10.0 mi NE 3.5 mph - N/A   Clear
7:53 AM 51.8 °F - 28.4 °F 41% 30.18 in 10.0 mi East 5.8 mph - N/A   Clear
8:53 AM 53.6 °F - 28.4 °F 38% 30.20 in 10.0 mi East 8.1 mph - N/A   Clear
9:53 AM 55.4 °F - 30.2 °F 38% 30.22 in 10.0 mi SE 8.1 mph - N/A   Clear
10:53 AM 55.4 °F - 26.6 °F 33% 30.22 in 10.0 mi ESE 8.1 mph - N/A   Overcast
11:53 AM 57.2 °F - 32.0 °F 38% 30.20 in 10.0 mi ESE 8.1 mph - N/A   Overcast
1:53 PM 57.2 °F - 32.0 °F 38% 30.24 in 10.0 mi ESE 6.9 mph - N/A   Overcast
2:53 PM 57.2 °F - 33.8 °F 41% 30.22 in 10.0 mi Variable 5.8 mph - N/A Rain Light Rain
3:53 PM 57.2 °F - 35.6 °F 44% 30.20 in 10.0 mi Variable 5.8 mph - N/A   Overcast
4:53 PM 57.2 °F - 35.6 °F 44% 30.17 in 10.0 mi SE 5.8 mph - N/A   Mostly Cloudy
5:15 PM 59.0 °F - 37.4 °F 45% 30.18 in 10.0 mi East 9.2 mph - N/A   Scattered Clouds
6:53 PM 57.2 °F - 39.2 °F 51% 30.20 in 10.0 mi East 6.9 mph - N/A   Mostly Cloudy
7:53 PM 55.4 °F - 39.2 °F 54% 30.20 in 10.0 mi Variable 3.5 mph - N/A   Scattered Clouds
8:53 PM 55.4 °F - 39.2 °F 54% 30.19 in 10.0 mi Variable 3.5 mph - N/A   Mostly Cloudy
9:55 PM 54.5 °F - 40.6 °F 60% 30.20 in 10.0 mi Calm Calm - N/A   Overcast
10:15 PM 54.0 °F - 42.3 °F 65% 30.20 in 10.0 mi Calm Calm - N/A   Overcast
10:35 PM 54.1 °F - 41.9 °F 63% 30.21 in 10.0 mi Calm Calm - N/A   Overcast
10:55 PM 53.8 °F - 42.4 °F 65% 30.20 in 10.0 mi Calm Calm - N/A   Overcast
11:15 PM 53.4 °F - 41.5 °F 64% 30.19 in 10.0 mi Calm Calm - N/A   Mostly Cloudy
11:55 PM 53.4 °F - 42.4 °F 66% 30.18 in 10.0 mi Calm Calm - N/A   Scattered Clouds